This is the latest recevied weather packets stored in our database for station/object KQ4NAL. If no packets are shown the sender has not sent any weather packets the latest 10 day(s).
| Time | Temp. | Humidity | Pressure | Rain* | Wind** | Luminosity | Snow |
|---|---|---|---|---|---|---|---|
| 1777503224 | 17.78° C | 60% | 1012.4 hPa | 0 mm | - | 83 W/m² | - |
| 1777502921 | 18.33° C | 59% | 1012.5 hPa | 0 mm | - | 87 W/m² | - |
| 1777502619 | 18.89° C | 58% | 1012.5 hPa | 0 mm | - | 216 W/m² | - |
| 1777502316 | 18.89° C | 58% | 1012.3 hPa | 0 mm | - | 242 W/m² | - |
| 1777502012 | 17.78° C | 59% | 1012.5 hPa | 0 mm | - | 268 W/m² | - |
| 1777501703 | 17.78° C | 58% | 1012.4 hPa | 0 mm | - | 278 W/m² | - |
| 1777501401 | 18.33° C | 58% | 1012.4 hPa | 0 mm | - | 92 W/m² | - |
| 1777501099 | 18.89° C | 59% | 1012.2 hPa | 0 mm | - | 292 W/m² | - |
| 1777500796 | 18.89° C | 61% | 1012.1 hPa | 0 mm | - | 211 W/m² | - |
| 1777500494 | 18.33° C | 61% | 1011.9 hPa | 0 mm | - | 312 W/m² | - |
| 1777500190 | 17.78° C | 64% | 1011.8 hPa | 0 mm | - | 370 W/m² | - |
| 1777499887 | 17.78° C | 64% | 1011.9 hPa | 0 mm | - | 147 W/m² | - |
| 1777499583 | 17.78° C | 65% | 1012 hPa | 0 mm | - | 167 W/m² | - |
| 1777499280 | 18.33° C | 66% | 1011.8 hPa | 0 mm | - | 175 W/m² | - |
| 1777498978 | 17.78° C | 68% | 1011.6 hPa | 0 mm | - | 103 W/m² | - |
| 1777498673 | 17.78° C | 69% | 1011.7 hPa | 0 mm | - | 418 W/m² | - |
| 1777498370 | 17.78° C | 67% | 1011.5 hPa | 0 mm | - | 159 W/m² | - |
| 1777498067 | 17.78° C | 67% | 1011.6 hPa | 0 mm | - | 88 W/m² | - |
| 1777497764 | 18.33° C | 66% | 1011.7 hPa | 0 mm | - | 474 W/m² | - |
| 1777497461 | 18.33° C | 68% | 1011.6 hPa | 0 mm | - | 187 W/m² | - |
| 1777497157 | 18.33° C | 68% | 1011.4 hPa | 0 mm | - | 502 W/m² | - |
| 1777496854 | 18.89° C | 66% | 1011.4 hPa | 0 mm | - | 399 W/m² | - |
| 1777496551 | 18.89° C | 68% | 1011.6 hPa | 0 mm | - | 519 W/m² | - |
| 1777496247 | 18.33° C | 67% | 1011.6 hPa | 0 mm | - | 518 W/m² | - |
| 1777495943 | 18.33° C | 69% | 1011.9 hPa | 0 mm | - | 226 W/m² | - |
* Rain latest hour (hover to see other rain measurements)
** Current wind speed in m/s (hover to see current wind gust speed)